User: anonymous   Login
Location: South Tamworth Observatory
(43.8246°N, 71.3026°W)
Time: 11:41:06
(UTC-04:00)
Language:

Cosmos 2208 Rocket - Orbit

View from above orbital plane
View from above orbital plane
View from above satellite
View from above satellite

Ground track
Ground track

The orbit data is extracted from the following two-line orbital elements,

1 22081U 92053B   16144.89169897  .00000074  00000-0  35875-4 0  9998
2 22081  74.0454  68.7338 0035297 134.7510 225.6524 14.33326874243063
Epoch (UTC): 23 May 2016 21:24:02
Eccentricity: 0.0035297
inclination: 74.0454°
perigee height: 755 km
apogee height: 806 km
right ascension of ascending node: 68.7338°
argument of perigee: 134.7510°
revolutions per day: 14.33326874
mean anomaly at epoch: 225.6524°
orbit number at epoch: 24306

The dashed part of the orbit path shows where the satellite is in the earth's shadow,  

DLR